Location: Waco, TX
(31.5480°N, 97.1670°W)
Time: 21:29:47
(UTC-06:00)

ISS - Pass Details

Date: 09 January 2018
Orbit: 401 x 406 km, 51.6° (Epoch: 17 January)

Event Time Altitude Azimuth Distance (km) Brightness Sun altitude
Rises 00:01:16 0° 184° (S) 2,293 - -77.8°
Reaches altitude 10° 00:04:12 10° 154° (SSE) 1,441 - -78.2°
Maximum altitude 00:05:44 13° 126° (SE) 1,286 - -78.4°
Drops below altitude 10° 00:07:16 10° 97° (E) 1,447 - -78.6°
Sets 00:10:13 0° 68° (ENE) 2,311 - -79.0°
